Weather History for Leader, SK

Change the Weather History Date:

Saturday, September 21, 2013

  Actual Average Record
Temperature  
Mean Temperature 60 °F -  
Max Temperature 84 °F - - ()
Min Temperature 37 °F - - ()
Degree Days  
Heating Degree Days 4    
Growing Degree Days 10 (Base 50)    
Moisture  
Dew Point 37 °F    
Average Humidity 48    
Maximum Humidity 86    
Minimum Humidity 12    
Precipitation  
Precipitation 0.00 in - - ()
Sea Level Pressure  
Sea Level Pressure 29.54 in    
Wind  
Wind Speed 8 mph ()    
Max Wind Speed 15 mph    
Max Gust Speed -    
T = Trace of Precipitation, MM = Missing Value Source: Averaged Metar Reports

Daily Weather History Graph

Daily Weather History Graph

Search for Another Location

Airport:

Trip Planner

Search our weather history database for the weather conditions in past years. The results will help you decide how hot, cold, wet, or windy it might be!

Date:

Astronomy

Sep. 21, 2013 Rise Set
Actual Time 7:03 AM CST 7:17 PM CST
Civil Twilight 6:30 AM CST 7:50 PM CST
Nautical Twilight 5:51 AM CST 8:29 PM CST
Astronomical Twilight 5:10 AM CST 9:09 PM CST
Moon 8:08 PM CST (9/21) 9:45 AM CST (9/21)
Length of Visible Light 13h 20m
Length of Day
12h 14m
Waning Gibbous, 94% of the Moon is Illuminated
Sep 21
Waning Gibbous
Sep 26
Last Quarter
Oct 4
New
Oct 11
First Quarter
Oct 18
Full

Hourly Weather History & Observations

Time (CST) Temp. Windchill Dew Point Humidity Pressure Visibility Wind Dir Wind Speed Gust Speed Precip Events Conditions
12:00 AM 49.5 °F - 39.6 °F 69% 29.67 in - SE 10.4 mph - N/A   Unknown
1:00 AM 49.3 °F - 39.4 °F 69% 29.65 in - SE 9.2 mph - N/A   Unknown
2:00 AM 48.0 °F - 38.8 °F 71% 29.63 in - SE 8.1 mph - N/A   Unknown
3:00 AM 46.4 °F 42.4 °F 38.3 °F 73% 29.62 in - SE 8.1 mph - N/A   Unknown
4:00 AM 44.1 °F 42.5 °F 37.2 °F 77% 29.62 in - ESE 3.5 mph - N/A   Unknown
5:00 AM 40.8 °F 37.8 °F 35.1 °F 80% 29.62 in - East 4.6 mph - N/A   Unknown
6:00 AM 39 °F - 35 °F 81% 29.62 in - East 9.2 mph - -  
6:00 AM 39.2 °F 33.0 °F 35.2 °F 86% 29.62 in - East 9.2 mph - N/A   Unknown
7:00 AM 37.8 °F 31.8 °F 33.4 °F 84% 29.62 in - ESE 8.1 mph - N/A   Unknown
8:00 AM 41.2 °F 38.2 °F 36.9 °F 85% 29.61 in - ESE 4.6 mph - N/A   Unknown
9:00 AM 53.4 °F - 40.3 °F 61% 29.59 in - SE 8.1 mph - N/A   Unknown
10:00 AM 61.5 °F - 40.5 °F 46% 29.57 in - SE 5.8 mph - N/A   Unknown
11:00 AM 67.1 °F - 38.8 °F 35% 29.55 in - South 4.6 mph - N/A   Unknown
12:00 PM 73 °F - 39 °F 18% 29.54 in - South 10.4 mph - -  
12:00 PM 73.4 °F - 38.8 °F 29% 29.54 in - South 10.4 mph - N/A   Unknown
1:00 PM 78.1 °F - 34.7 °F 21% 29.51 in - SSE 9.2 mph - N/A   Unknown
2:00 PM 81.7 °F - 29.7 °F 15% 29.48 in - South 9.2 mph - N/A   Unknown
3:00 PM 82.9 °F - 31.1 °F 15% 29.45 in - SSE 10.4 mph - N/A   Unknown
4:00 PM 82.4 °F - 31.3 °F 16% 29.44 in - South 11.5 mph - N/A   Unknown
5:00 PM 80.2 °F - 38.7 °F 23% 29.44 in - SSW 15.0 mph - N/A   Unknown
6:00 PM 77 °F - 34 °F 12% 29.44 in - SSW 13.8 mph - -  
6:00 PM 76.8 °F - 34.0 °F 21% 29.44 in - SSW 13.8 mph - N/A   Unknown
7:00 PM 71.2 °F - 36.5 °F 28% 29.45 in - SW 10.4 mph - N/A   Unknown
8:00 PM 63.0 °F - 39.6 °F 42% 29.46 in - SSW 9.2 mph - N/A   Unknown
9:00 PM 63.9 °F - 39.7 °F 41% 29.46 in - SW 11.5 mph - N/A   Unknown
10:00 PM 59.4 °F - 40.3 °F 49% 29.47 in - SW 13.8 mph - N/A   Unknown
11:00 PM 59.5 °F - 39.7 °F 48% 29.49 in - SW 12.7 mph - N/A   Unknown